Miscellaneous Local Product
Issued by NWS Hastings, NE

Home | Current Version | Previous Version | Graphics & Text | Print | Product List | Glossary On
Versions: 1 2 3 4 5 6 7 8 9 10 11 12 13 14 15 16 17 18 19 20 21 22 23 24 25 26 27 28 29 30 31 32 33 34 35 36 37 38 39 40 41 42 43 44 45 46 47 48 49 50
000
AXUS43 KGID 251902
MISGRI

GID CWA HOURLY WEATHER ROUNDUP
NATIONAL WEATHER SERVICE HASTINGS NE
200 PM CDT SAT OCT 25 2014

NOTE: "FAIR" INDICATES FEW OR NO CLOUDS BELOW 12,000 FEET WITH NO
SIGNIFICANT WEATHER AND/OR OBSTRUCTIONS TO VISIBILITY.

...SOUTH CENTRAL NEBRASKA...

CITY           SKY/WX    TMP DP  RH WIND       PRES   REMARKS
GRAND ISLAND   SUNNY     73  44  35 VRB7      30.09F
HASTINGS       SUNNY     73  43  33 SE10      30.07F
KEARNEY        SUNNY     72  46  40 NE9       30.09F
ORD            SUNNY     69  39  33 SE7       30.10F
YORK           SUNNY     70  45  40 E7        30.10F
AURORA         SUNNY     73  41  31 NE7       30.09F
LEXINGTON      SUNNY     74  45  35 E9        30.08F
HOLDREGE       SUNNY     74  46  36 CALM      30.07F
HEBRON         SUNNY     77  42  28 SE5       30.06F

...NEBRASKA PANHANDLE...

CITY           SKY/WX    TMP DP  RH WIND       PRES   REMARKS
CHADRON        SUNNY     65  40  39 E7        30.08F
ALLIANCE       SUNNY     68  39  34 E5        30.11F
SCOTTSBLUFF    SUNNY     70  39  32 E3        30.09F
SIDNEY         SUNNY     77  33  20 VRB5      30.13F

...WESTERN AND NORTH CENTRAL NEBRASKA...

CITY           SKY/WX    TMP DP  RH WIND       PRES   REMARKS
VALENTINE      SUNNY     67  29  24 SE13      30.12F
AINSWORTH      SUNNY     66  31  27 E9G17     30.12F
ONEILL         SUNNY     68  34  28 E7        30.13F
BROKEN BOW     SUNNY     72  43  35 E10       30.09F
IMPERIAL       SUNNY     76  35  22 SE5       30.09F
NORTH PLATTE   SUNNY     73  46  38 SE10      30.08F
MCCOOK         SUNNY     77  47  34 E8        30.07F

...EASTERN NEBRASKA...

CITY           SKY/WX    TMP DP  RH WIND       PRES   REMARKS
NORFOLK        SUNNY     70  37  29 NE6       30.11F
SO SIOUX CITY  SUNNY     70  34  26 CALM      30.12F
TEKAMAH        SUNNY     73  39  29 CALM      30.10F
COLUMBUS       SUNNY     70  39  32 E10       30.12F
ALBION         SUNNY     69  38  32 E9        30.11F
OMAHA EPPLEY   MOSUNNY   73  40  30 CALM      30.09F
OFFUTT AFB     HAZE      73  43  33 VRB3      30.08F VSB 1/2
MILLARD        SUNNY     70  44  38 NE3       30.09F
LINCOLN        SUNNY     72  44  36 NE10      30.09F
NEBRASKA CITY  SUNNY     73  36  26 NE7       30.08F
BEATRICE       SUNNY     74  49  40 E7        30.07F
FALLS CITY     SUNNY     76  51  41 SE5       30.06F

...NORTHERN KANSAS...

CITY           SKY/WX    TMP DP  RH WIND       PRES   REMARKS
GOODLAND       SUNNY     81  35  19 VRB5      30.10F
HILL CITY      SUNNY     79  48  33 SE9       30.05F
NORTON         CLEAR     81  43  26 E6        30.05F
PHILLIPSBURG   SUNNY     81  54  39 SE9       30.05F
SMITH CENTER   SUNNY     81  55  41 E7        30.05F
BELOIT         SUNNY     79  59  50 SE5       30.03F
HAYS           SUNNY     81  54  39 SE5       30.05F
RUSSELL        SUNNY     85  51  31 S9        30.03F
CONCORDIA      SUNNY     79  59  50 E9        30.04F
SALINA         SUNNY     85  63  47 VRB3      30.02F
TOPEKA         SUNNY     79  61  53 E5        30.04F



USA.gov is the U.S. government's official web portal to all federal, state and local government web resources and services.